Zurück zum Katalog

OPS 5798 DEB

AktivPO
NORAD 901·DEBRIS·🇺🇸 United States

Gestartet Oct 6, 1964 von Vandenberg Space Force Base

Loading…

Nächste Überflüge (nächste 24 Stunden)

TLE

AktuellSource: Space-Track

Epoche: Sep 14, 2026, 00:27 UTC

1 00901U 64063D   26257.01882757  .00000089  00000-0  11651-3 0  9993
2 00901  90.2296  78.5423 0017692 218.8744 312.5189 13.55158870 58496

Verfolge OPS 5798 DEB in Echtzeit mit AllMySat

Download on the App Store